Location: Cactus School
(34.5700°N, 118.0931°W)
Time: 08:14:43
(UTC-08:00)

Tiros 1 - Pass Details

Date: 23 November 2019
Orbit: 630 x 664 km, 48.4° (Epoch: 08 December)

Event Time Altitude Azimuth Distance (km) Brightness Sun altitude
Rises 10:20:06 0° 194° (SSW) 2,915 11.2 31.9°
Reaches altitude 10° 10:22:55 10° 177° (S) 2,006 11.0 32.2°
Maximum altitude 10:26:16 20° 131° (SE) 1,465 10.3 32.4°
Drops below altitude 10° 10:29:35 10° 84° (E) 2,005 9.9 32.6°
Sets 10:32:25 0° 67° (ENE) 2,915 10.5 32.8°
